SL-14 DEB

Satellite information

Favourite Embed

Satellite Type and Status

DEBRISIN ORBIT

Key statistics

Satellite SL-14 DEB at a glance.

Uptime

12453

Days in orbit

Revolutions

≈ 12.7

Per day

Orbit

LEO

Low Earth Orbit

Inclination

82.7

Latest

Satellite identification and parameters

Extended collection of information and parameters for SL-14 DEB.

Object identification

Identified? True

Debris? True

Object name: SL-14 DEB

International designator: 1991-068N

Object number (NORAD): 26003

Object ID (CCSDS): 26003

Country: COMMONWEALTH OF INDEPENDENT STATES (CIS)

Current information (Y/N): Y

RCS size: SMALL

Orbital parameters

Period: 113.47 minutes

Inclination: 82.7148 deg

SMA: 7763.901 km

Apoapsis: 1477.415 km

Periapsis: 1294.118 km

RAAN: 305.7859 deg

Eccentricy: 0.0118045

Argument of periapsis: 127.8304 deg

Mean anomaly: 29.8249 deg

Mean motion: 12.69061699 rev/day

Mean motion (dot): 0.00002624 rev/day2

B* drag term: 0.012973 1/REarth

Two-line elements (TLE)

Creation date: Oct. 31, 2025, 6:36 p.m.

Reference frame: TEME

Reference center: EARTH

Epoch: Oct. 31, 2025, 11:54 a.m. UTC

TLE line 0: 0 SL-14 DEB

TLE line 1: 1 26003U 91068N 25304.49620544 .00002624 00000-0 12973-1 0 9990

TLE line 2: 2 26003 82.7148 305.7859 0118045 127.8304 29.8249 12.69061699195585

Live tracking on map

Real-time ground track for satellite SL-14 DEB.

In-orbit conjunctions

A list of the most updated potential collisions computed for object SL-14 DEB.

Target Orbit TCA Probability of collision Miss distance Type
COSMOS 593 LEO 2024-09-10 03:31:41 0.0001132002 217.0 (m) PAYLOAD

Associated space launch

Second generation store-dump military communications satellite

SL-14 DEB was lifted into orbit during the mission ‘Tsiklon-3 | Strela-3 67 to 72’, on board a Tsiklon-3 space rocket.

The launch took place on Sept. 28, 1991, 7:05 a.m. from 32/2.

For more information about the launch, click the button.

Launch to space Tsiklon-3 | Strela-3 67 to 72
Tsiklon-3 | Strela-3 67 to 72

Agency: N/A

Status: Launch Successful

Launch date: Sept. 28, 1991, 7:05 a.m. UTC

Rocket: Tsiklon-3

Launch pad: 32/2

Location: Plesetsk Cosmodrome, Russian Federation

...

Latest news about this satellite

There are no fresh news available about this satellite. Check back as we update our databases every day.


Newsletter sign-up

Weekly statistics, charts and insights to help you stay on top of the space industry.